CZ-3C DEB, 39354

Orbit data source: Space-Track

CZ-3C DEB, 39354 is space debris in HEO originally from a launch on Sun, 31 Oct 2010 UTC launched from the Xichang Space Center, China (XSC). Debris objects in space refer to the collection of defunct objects orbiting the Earth. Examples of debris include non-operational satellites, rocket bodies, and fragments generated from explosions, collisions, or faulty payload assembly.

Loading next visibility...
Identifier
39354, 2010-057U
Orbit
HEO
Country
Flag of CNCN / PRC
Related business
Manufacturer
CALT
Mission
Spacecraft
Bus & Motor
Unknown
Mass
Unknown
Launch date (UTC)
2010-10-31 (15 years ago)
Launch vehicle
Unknown
Launch site
Xichang Space Center, China (XSC)
Object type
Payload
Rocket body
Debris
Shape & HBR
Unknown shape, 0.2 m
Radar Cross Section
Medium (>0.1 m² and <1 m²)

Expand to show TLE details & history
Last TLE update: 3 days ago

TLE from 3 days ago
0 CZ-3C DEB
1 39354U 10057U   25298.99233286  .00000149  00000-0  58846-2 0  9992
2 39354  20.2600 174.7783 7163789  18.1267   3.2594  2.22618711 93587
Epoch: 2025-10-25T23:48Z
TLE epoch observation values (Epoch: 2025-10-25T23:48:57.559Z)
Latitude
14.07533°
Longitude
-174.61595°
Altitude
944.115 km
Speed
9.633 km/s
True Right ascension
14h 28m 57s
True Declination
13° 59' 47"
Sunlit
Object was in daylight at epoch
Visualization orbit readout
Latitude
Unknown
Longitude
Unknown
Altitude
Unknown
Speed
Unknown
Apparent Right ascension
Unknown
Apparent Declination
Unknown
Sunlit
N/A
Visualization observer readout
Local Sidereal Time
09:03:59
Azimuth
Unknown
Elevation
Unknown
Doppler factor
Unknown
Orbital elements
Apogee altitude
36,153.889 km
Perigee altitude
650.02 km
Semi-major axis
24,780.092 km
Eccentricity
0.71638
Inclination
20.26°
RAAN
174.7783°
Arg. of periapsis
18.1267°
True anomaly
27.37334°
Mean anomaly
3.2594°
Eccentric anomaly
11.30708°
Mean motion
0.5564 °/min
Orbital period
647.01 mins
BSTAR
0.0058846
Loading maneuver chart data...
Computing Atmospheric mass density...
Loading historical data...
Loading historical data...
Loading historical data...
Loading historical data...
Loading historical data...
Loading historical data...
Loading historical data...

Documentation

Showing up to 5 results
|